User: anonymous   Login
Location: Unspecified
(0.0000°N, 0.0000°E)
Time: 23:50:22
(UTC+00:00)
Language:

CHUBUSAT 1 - Orbit

View from above orbital plane
View from above orbital plane
View from above satellite
View from above satellite

Ground track
Ground track

The orbit data is extracted from the following two-line orbital elements,

1 40300U 14070C   21023.76207552  .00000743  00000-0  34461-4 0  9997
2 40300  97.2634  92.0515 0019920 152.9303 321.5341 15.22898718345031
Epoch (UTC): 23 January 2021 18:17:23
Eccentricity: 0.0019920
inclination: 97.2634°
perigee height: 483 km
apogee height: 511 km
right ascension of ascending node: 92.0515°
argument of perigee: 152.9303°
revolutions per day: 15.22898718
mean anomaly at epoch: 321.5341°
orbit number at epoch: 34503

The dashed part of the orbit path shows where the satellite is in the earth's shadow,  

DLR